Weather History for Egegik, AK

Change the Weather History Date:

Sunday, April 13, 2014

  Actual Average (PAKN) Record (PAKN)
Temperature  
Mean Temperature 40 °F 33 °F  
Max Temperature 46 °F 41 °F 56 °F (1990)
Min Temperature 35 °F 24 °F -12 °F (1977)
Degree Days  
Heating Degree Days 24 32  
Month to date heating degree days 450  
Since 1 July heating degree days 9333  
Cooling Degree Days 0    
Month to date cooling degree days  
Year to date cooling degree days  
Moisture  
Dew Point 34 °F    
Average Humidity 82    
Maximum Humidity 100    
Minimum Humidity 61    
Precipitation  
Precipitation 0.06 in 0.03 in 0.28 in (2008)
Month to date precipitation 0.39  
Year to date precipitation 2.87  
Snow  
Snow 0.00 in 0.10 in 1.60 in (2008)
Month to date snowfall 2.2  
Since 1 July snowfall 44.1  
Snow Depth -    
Sea Level Pressure  
Sea Level Pressure 29.74 in    
Wind  
Wind Speed 10 mph (SE)    
Max Wind Speed 28 mph    
Max Gust Speed 34 mph    
Visibility 10 miles    
Events      
T = Trace of Precipitation, MM = Missing Value Source: NWS Daily Summary

Daily Weather History Graph

Daily Weather History Graph

Search for Another Location

Airport:

Trip Planner

Search our weather history database for the weather conditions in past years. The results will help you decide how hot, cold, wet, or windy it might be!

Date:

Astronomy

Apr. 13, 2014 Rise Set
Actual Time 7:23 AM AKDT 9:38 PM AKDT
Civil Twilight 6:40 AM AKDT 10:21 PM AKDT
Nautical Twilight 5:45 AM AKDT 11:17 PM AKDT
Astronomical Twilight 4:36 AM AKDT 12:27 AM AKDT
Moon 8:14 PM AKDT (4/13) 6:48 AM AKDT (4/13)
Length of Visible Light 15h 41m
Length of Day
14h 15m
Waxing Gibbous, 98% of the Moon is Illuminated
Apr 13
Waxing Gibbous
Apr 14
Full
Apr 21
Last Quarter
Apr 28
New
May 6
First Quarter

Hourly Weather History & Observations

Time (AKDT) Temp. Windchill Dew Point Humidity Pressure Visibility Wind Dir Wind Speed Gust Speed Precip Events Conditions
12:16 AM 37.4 °F 34.9 °F 35.6 °F 93% 29.66 in 10.0 mi SSW 3.5 mph - N/A   Overcast
12:36 AM 37.4 °F 33.8 °F 33.8 °F 87% 29.66 in 10.0 mi West 4.6 mph - N/A   Overcast
12:56 AM 37.4 °F 34.9 °F 35.6 °F 93% 29.66 in 8.0 mi West 3.5 mph - 0.01 in   Overcast
1:16 AM 37.4 °F - 35.6 °F 93% 29.66 in 10.0 mi Calm Calm - N/A   Overcast
1:36 AM 37.4 °F - 33.8 °F 87% 29.66 in 10.0 mi Calm Calm - 0.01 in   Overcast
1:56 AM 37.4 °F 34.9 °F 35.6 °F 93% 29.66 in 9.0 mi NW 3.5 mph - 0.01 in   Overcast
2:16 AM 35.6 °F 30.7 °F 33.8 °F 93% 29.66 in 8.0 mi NNW 5.8 mph - 0.01 in   Overcast
2:36 AM 35.6 °F 30.7 °F 33.8 °F 93% 29.65 in 5.0 mi North 5.8 mph - 0.02 in   Overcast
2:56 AM 35.6 °F 30.7 °F 33.8 °F 93% 29.65 in 10.0 mi North 5.8 mph - 0.03 in   Overcast
3:16 AM 35.6 °F 30.7 °F 33.8 °F 93% 29.65 in 10.0 mi North 5.8 mph - N/A   Overcast
3:36 AM 35.6 °F 31.7 °F 33.8 °F 93% 29.66 in 10.0 mi NNW 4.6 mph - N/A   Overcast
3:56 AM 35.6 °F - 33.8 °F 93% 29.66 in 10.0 mi Calm Calm - N/A   Overcast
4:16 AM 35.6 °F - 35.6 °F 100% 29.66 in 10.0 mi Calm Calm - N/A   Overcast
4:36 AM 37.4 °F 33.8 °F 33.8 °F 87% 29.67 in 10.0 mi SW 4.6 mph - N/A   Overcast
4:56 AM 37.4 °F 32.8 °F 35.6 °F 93% 29.67 in 10.0 mi South 5.8 mph - N/A   Overcast
5:16 AM 35.6 °F 30.7 °F 33.8 °F 93% 29.68 in 10.0 mi SE 5.8 mph - N/A   Mostly Cloudy
5:36 AM 35.6 °F 30.7 °F 33.8 °F 93% 29.68 in 10.0 mi SE 5.8 mph - N/A   Overcast
5:56 AM 37.4 °F 31.4 °F 35.6 °F 93% 29.68 in 10.0 mi SE 8.1 mph - N/A   Overcast
6:16 AM 37.4 °F 32.1 °F 35.6 °F 93% 29.69 in 8.0 mi SSE 6.9 mph - N/A   Overcast
6:36 AM 37.4 °F 33.8 °F 35.6 °F 93% 29.69 in 10.0 mi SSE 4.6 mph - N/A   Overcast
6:56 AM 37.4 °F 32.8 °F 35.6 °F 93% 29.69 in 10.0 mi SSE 5.8 mph - N/A   Overcast
7:36 AM 37.4 °F 31.4 °F 35.6 °F 93% 29.70 in 10.0 mi SSE 8.1 mph - N/A   Mostly Cloudy
7:56 AM 37.4 °F 30.3 °F 35.6 °F 93% 29.71 in 10.0 mi South 10.4 mph - N/A   Overcast
8:16 AM 37.4 °F 30.8 °F 33.8 °F 87% 29.72 in 3.0 mi SSW 9.2 mph - N/A   Overcast
8:36 AM 35.6 °F 29.2 °F 33.8 °F 93% 29.73 in 4.0 mi SW 8.1 mph - N/A   Overcast
8:56 AM 35.6 °F 28.6 °F 33.8 °F 93% 29.74 in 10.0 mi SW 9.2 mph - N/A   Overcast
9:16 AM 37.4 °F 31.4 °F 33.8 °F 87% 29.74 in 10.0 mi SW 8.1 mph - N/A   Overcast
9:36 AM 37.4 °F 32.1 °F 35.6 °F 93% 29.74 in 10.0 mi SSW 6.9 mph - N/A   Overcast
9:56 AM 37.4 °F 31.4 °F 35.6 °F 93% 29.75 in 10.0 mi SSW 8.1 mph - N/A   Overcast
10:16 AM 37.4 °F 30.8 °F 35.6 °F 93% 29.76 in 10.0 mi South 9.2 mph - N/A   Overcast
10:36 AM 37.4 °F 30.8 °F 35.6 °F 93% 29.77 in 10.0 mi South 9.2 mph - N/A   Overcast
10:56 AM 37.4 °F 29.8 °F 35.6 °F 93% 29.77 in 10.0 mi South 11.5 mph - N/A   Overcast
11:16 AM 39.2 °F 32.5 °F 35.6 °F 87% 29.78 in 10.0 mi SSE 10.4 mph - N/A   Overcast
11:36 AM 39.2 °F 32.5 °F 37.4 °F 93% 29.78 in 10.0 mi SSE 10.4 mph - N/A   Overcast
11:56 AM 41.0 °F 35.2 °F 37.4 °F 87% 29.78 in 10.0 mi SSE 9.2 mph - N/A   Overcast
12:16 PM 42.8 °F 36.6 °F 37.4 °F 81% 29.78 in 10.0 mi SSE 11.5 mph - N/A   Overcast
12:36 PM 42.8 °F 36.6 °F 37.4 °F 81% 29.79 in 10.0 mi SE 11.5 mph - N/A   Overcast
12:56 PM 42.8 °F 36.6 °F 37.4 °F 81% 29.78 in 10.0 mi SE 11.5 mph - N/A   Overcast
1:16 PM 42.8 °F 37.0 °F 37.4 °F 81% 29.78 in 10.0 mi ESE 10.4 mph - N/A   Overcast
1:36 PM 44.6 °F 38.4 °F 37.4 °F 76% 29.78 in 10.0 mi ESE 12.7 mph - 0.01 in   Overcast
1:56 PM 44.6 °F 38.8 °F 37.4 °F 76% 29.77 in 10.0 mi ESE 11.5 mph - 0.01 in   Overcast
2:16 PM 44.6 °F 37.2 °F 37.4 °F 76% 29.77 in 10.0 mi ESE 17.3 mph - N/A   Overcast
2:36 PM 44.6 °F 36.9 °F 37.4 °F 76% 29.77 in 10.0 mi ESE 18.4 mph 24.2 mph N/A   Overcast
2:56 PM 46.4 °F 38.7 °F 35.6 °F 66% 29.76 in 10.0 mi ESE 20.7 mph 27.6 mph N/A   Mostly Cloudy
3:16 PM 46.4 °F 39.0 °F 35.6 °F 66% 29.77 in 10.0 mi ESE 19.6 mph 27.6 mph N/A   Mostly Cloudy
3:36 PM 46.4 °F 38.5 °F 35.6 °F 66% 29.77 in 10.0 mi SE 21.9 mph 25.3 mph N/A   Mostly Cloudy
3:56 PM 46.4 °F 38.5 °F 35.6 °F 66% 29.76 in 10.0 mi ESE 21.9 mph 26.5 mph N/A   Mostly Cloudy
4:16 PM 46.4 °F 38.5 °F 33.8 °F 62% 29.76 in 10.0 mi SE 21.9 mph 27.6 mph N/A   Scattered Clouds
4:36 PM 46.4 °F 37.9 °F 33.8 °F 62% 29.77 in 10.0 mi SE 25.3 mph 32.2 mph N/A   Partly Cloudy
4:56 PM 44.6 °F 35.7 °F 32.0 °F 61% 29.77 in 10.0 mi SE 24.2 mph 33.4 mph N/A   Clear
5:16 PM 44.6 °F 35.1 °F 32.0 °F 61% 29.77 in 10.0 mi SE 27.6 mph 32.2 mph N/A   Clear
5:36 PM 44.6 °F 35.1 °F 33.8 °F 66% 29.77 in 10.0 mi SE 27.6 mph 32.2 mph N/A   Partly Cloudy
5:56 PM 44.6 °F 35.3 °F 32.0 °F 61% 29.77 in 10.0 mi SE 26.5 mph 32.2 mph N/A   Partly Cloudy
6:16 PM 42.8 °F 32.9 °F 32.0 °F 66% 29.77 in 10.0 mi SE 26.5 mph 34.5 mph N/A   Scattered Clouds
6:36 PM 42.8 °F 32.7 °F 32.0 °F 66% 29.76 in 10.0 mi SE 27.6 mph 34.5 mph N/A   Overcast
6:56 PM 42.8 °F 32.7 °F 32.0 °F 66% 29.76 in 10.0 mi SE 27.6 mph 34.5 mph N/A   Overcast
7:16 PM 42.8 °F 34.3 °F 32.0 °F 66% 29.77 in 10.0 mi ESE 19.6 mph 32.2 mph N/A   Overcast
7:36 PM 41.0 °F 32.5 °F 33.8 °F 76% 29.77 in 10.0 mi ESE 17.3 mph 27.6 mph N/A   Overcast
7:56 PM 39.2 °F 29.6 °F 32.0 °F 75% 29.77 in 10.0 mi ESE 19.6 mph 25.3 mph N/A   Overcast
8:16 PM 39.2 °F 29.3 °F 32.0 °F 75% 29.76 in 10.0 mi ESE 20.7 mph 27.6 mph N/A   Overcast
8:36 PM 39.2 °F 29.0 °F 32.0 °F 75% 29.76 in 10.0 mi ESE 21.9 mph 31.1 mph N/A   Overcast
8:56 PM 39.2 °F 28.5 °F 32.0 °F 75% 29.76 in 10.0 mi ESE 24.2 mph 31.1 mph N/A   Overcast
9:16 PM 39.2 °F 29.3 °F 33.8 °F 81% 29.77 in 10.0 mi ESE 20.7 mph 29.9 mph N/A   Overcast
9:36 PM 39.2 °F 29.3 °F 33.8 °F 81% 29.77 in 10.0 mi ESE 20.7 mph 28.8 mph N/A   Overcast
9:56 PM 39.2 °F 28.7 °F 32.0 °F 75% 29.78 in 10.0 mi ESE 23.0 mph 29.9 mph N/A   Overcast
10:16 PM 37.4 °F 26.9 °F 33.8 °F 87% 29.78 in 10.0 mi ESE 20.7 mph 28.8 mph N/A   Overcast
10:36 PM 39.2 °F 29.0 °F 32.0 °F 75% 29.78 in 10.0 mi ESE 21.9 mph 27.6 mph N/A   Overcast
10:56 PM 37.4 °F 26.6 °F 32.0 °F 81% 29.79 in 10.0 mi ESE 21.9 mph 27.6 mph N/A   Overcast
11:16 PM 39.2 °F 29.0 °F 32.0 °F 75% 29.79 in 10.0 mi ESE 21.9 mph 28.8 mph N/A   Mostly Cloudy
11:36 PM 37.4 °F 26.6 °F 32.0 °F 81% 29.79 in 10.0 mi ESE 21.9 mph 26.5 mph N/A   Mostly Cloudy
11:56 PM 37.4 °F 27.2 °F 30.2 °F 75% 29.80 in 10.0 mi ESE 19.6 mph 27.6 mph N/A   Overcast